Regional Weather Roundup
Issued by NWS

Home | Current Version | Previous Version | Text Only | Print | Product List | Glossary Off
Versions: 1 2 3 4 5 6 7 8 9 10 11 12 13 14 15 16 17 18 19 20 21 22 23 24 25 26 27 28 29 30 31 32 33 34 35 36 37 38 39 40 41 42 43 44 45 46 47 48 49 50

000
ASUS43 KFSD 260302
RWRSD

WEATHER ROUNDUP FOR SOUTH DAKOTA
NATIONAL WEATHER SERVICE SIOUX FALLS SD
1000 PM CDT SAT OCT 25 2014

NOTE: "FAIR" INDICATES FEW OR NO CLOUDS BELOW 12,000 FEET WITH NO
SIGNIFICANT WEATHER AND/OR OBSTRUCTIONS TO VISIBILITY.


SDZ001>005-009-010-012>017-260400-
NORTHWEST AND NORTH CENTRAL SOUTH DAKOTA

CITY           SKY/WX    TMP DP  RH WIND       PRES   REMARKS
BUFFALO          N/A     54  31  41 SE16      29.79F
FAITH            N/A     50  29  44 SE17      29.91F
MOBRIDGE       CLEAR     49  32  52 SE10      29.95F
$$

SDZ012>016-024>037-041>051-057-063-072>074-260400-
SOUTHWEST AND SOUTH CENTRAL SOUTH DAKOTA

CITY           SKY/WX    TMP DP  RH WIND       PRES   REMARKS
RAPID CTY ARPT CLEAR     49  37  63 S8        29.90F
PIERRE         CLEAR     51  34  52 SE13      29.97F
CUSTER         CLEAR     46  33  60 NE3       29.99F
ELLSWORTH AFB  CLEAR     55  37  51 SE15      29.90F
PHILIP         CLEAR     51  31  46 E10       29.93F
PINE RIDGE     CLEAR     62  38  40 SE10G22   29.92F
WINNER         FAIR      49  33  54 SE13      29.99F
$$

SDZ004>011-016>023-039-040-260400-
NORTHEAST SOUTH DAKOTA

CITY           SKY/WX    TMP DP  RH WIND       PRES   REMARKS
ABERDEEN       CLEAR     41  30  65 SE5       30.03F
WATERTOWN      CLEAR     46  30  53 E3        30.05F
SISSETON         N/A     35  28  75 CALM      30.04F
$$

SDZ017-020-022-023-036>040-048>070-260400-
SOUTHEAST SOUTH DAKOTA

CITY           SKY/WX    TMP DP  RH WIND       PRES   REMARKS
SIOUX FALLS    CLEAR     42  35  76 CALM      30.06F
HURON          CLEAR     49  31  49 SE8       30.03F
CHAMBERLAIN    CLEAR     47  34  59 SE6       30.01F
MITCHELL       CLEAR     49  34  56 SE8       30.04F
YANKTON        CLEAR     52  34  50 E5        30.05F
$$

ABBREVIATIONS USED IN REMARKS
   TC - TEMPERATURE IN CELSIUS
  WCI - WIND CHILL INDEX
   HX - HEAT INDEX
  VSB - VISIBILITY




USA.gov is the U.S. government's official web portal to all federal, state and local government web resources and services.